Weather History for LTBU - August, 2013

Change the Weather History Date:

Saturday, August 31, 2013

  Actual Average (LTBA) Record (LTBA)
Temperature  
Mean Temperature 68 °F -  
Max Temperature 77 °F 79 °F 93 °F (2007)
Min Temperature 60 °F 67 °F 59 °F (2006)
Cooling Degree Days 4    
Growing Degree Days 18 (Base 50)    
Moisture  
Dew Point 56 °F    
Average Humidity 66    
Maximum Humidity 88    
Minimum Humidity 39    
Precipitation  
Precipitation 0.00 in - - ()
Sea Level Pressure  
Sea Level Pressure 30.01 in    
Wind  
Wind Speed 10 mph ()    
Max Wind Speed 20 mph    
Max Gust Speed -    
Visibility 6.2 miles    
Events      
Averages and records for this station are not official NWS values.
T = Trace of Precipitation, MM = Missing Value Source: Averaged Metar Reports

Daily Weather History Graph

Daily Weather History Graph

Search for Another Location

Airport or City:

Trip Planner

Search our weather history database for the weather conditions in past years. The results will help you decide how hot, cold, wet, or windy it might be!

Date:

Astronomy

Aug. 31, 2013 Rise Set
Actual Time 6:33 AM EEST 7:42 PM EEST
Civil Twilight 6:05 AM EEST 8:11 PM EEST
Nautical Twilight 5:31 AM EEST 8:44 PM EEST
Astronomical Twilight 4:55 AM EEST 9:20 PM EEST
Moon 1:44 AM EEST (8/31) 4:29 PM EEST (8/31)
Length of Visible Light 14h 05m
Length of Day
13h 08m
Waning Crescent, 23% of the Moon is Illuminated
Aug 31
Waning Crescent
Sep 5
New
Sep 12
First Quarter
Sep 19
Full
Sep 27
Last Quarter

Hourly Weather History & Observations

Time (EEST) Temp. Dew Point Humidity Pressure Visibility Wind Dir Wind Speed Gust Speed Precip Events Conditions
12:20 AM 64.4 °F 60.8 °F 88% 29.98 in 6.2 mi NE 10.4 mph - N/A   Scattered Clouds
12:50 AM 64.4 °F 59.0 °F 83% 29.98 in 6.2 mi NE 9.2 mph - N/A   Scattered Clouds
1:20 AM 64.4 °F 59.0 °F 83% 29.98 in 6.2 mi NE 6.9 mph - N/A   Scattered Clouds
1:50 AM 62.6 °F 59.0 °F 88% 30.01 in 6.2 mi Variable 3.5 mph - N/A   Scattered Clouds
2:20 AM 60.8 °F 57.2 °F 88% 30.01 in 6.2 mi Variable 3.5 mph - N/A   Scattered Clouds
2:50 AM 62.6 °F 59.0 °F 88% 30.01 in 6.2 mi NNE 6.9 mph - N/A   Scattered Clouds
3:20 AM 62.6 °F 59.0 °F 88% 29.98 in 6.2 mi NNE 6.9 mph - N/A   Scattered Clouds
3:50 AM 62.6 °F 59.0 °F 88% 30.01 in 6.2 mi North 6.9 mph - N/A   Scattered Clouds
4:20 AM 62.6 °F 59.0 °F 88% 30.01 in 6.2 mi NNE 5.8 mph - N/A   Scattered Clouds
4:50 AM 60.8 °F 57.2 °F 88% 29.98 in 6.2 mi North 8.1 mph - N/A   Scattered Clouds
5:20 AM 60.8 °F 57.2 °F 88% 29.98 in 6.2 mi North 8.1 mph - N/A   Scattered Clouds
5:50 AM 60.8 °F 57.2 °F 88% 29.98 in 6.2 mi North 6.9 mph - N/A   Scattered Clouds
6:20 AM 62.6 °F 59.0 °F 88% 30.01 in 6.2 mi North 9.2 mph - N/A   Scattered Clouds
6:50 AM 62.6 °F 57.2 °F 82% 30.01 in 6.2 mi North 6.9 mph - N/A   Scattered Clouds
7:20 AM 64.4 °F 59.0 °F 83% 30.01 in 6.2 mi North 5.8 mph - N/A   Mostly Cloudy
7:50 AM 66.2 °F 59.0 °F 78% 30.01 in 6.2 mi NNW 5.8 mph - N/A   Mostly Cloudy
8:20 AM 66.2 °F 59.0 °F 78% 30.01 in 6.2 mi NNW 8.1 mph - N/A   Mostly Cloudy
8:50 AM 68.0 °F 59.0 °F 73% 30.01 in 6.2 mi North 9.2 mph - N/A   Mostly Cloudy
9:20 AM 69.8 °F 59.0 °F 68% 30.01 in 6.2 mi North 9.2 mph - N/A   Mostly Cloudy
9:50 AM 71.6 °F 59.0 °F 64% 30.01 in 6.2 mi North 12.7 mph - N/A   Mostly Cloudy
10:20 AM 73.4 °F 57.2 °F 57% 30.01 in 6.2 mi NNE 17.3 mph - N/A   Mostly Cloudy
10:50 AM 75.2 °F 59.0 °F 57% 30.01 in 6.2 mi NE 19.6 mph - N/A   Mostly Cloudy
11:20 AM 75.2 °F 57.2 °F 53% 30.01 in 6.2 mi NE 18.4 mph - N/A   Mostly Cloudy
11:50 AM 75.2 °F 57.2 °F 53% 30.01 in 6.2 mi NNE 19.6 mph - N/A   Mostly Cloudy
12:20 PM 77.0 °F 55.4 °F 47% 30.01 in 6.2 mi NE 16.1 mph - N/A   Mostly Cloudy
12:50 PM 77.0 °F 55.4 °F 47% 30.01 in 6.2 mi NNE 17.3 mph - N/A   Mostly Cloudy
1:20 PM 77.0 °F 53.6 °F 44% 30.01 in 6.2 mi NNE 17.3 mph - N/A   Mostly Cloudy
1:50 PM 77.0 °F 53.6 °F 44% 30.01 in 6.2 mi NNE 17.3 mph - N/A   Mostly Cloudy
2:20 PM 77.0 °F 51.8 °F 41% 30.01 in 6.2 mi NNE 18.4 mph - N/A   Mostly Cloudy
2:50 PM 77.0 °F 50.0 °F 39% 30.01 in 6.2 mi NNE 16.1 mph - N/A   Mostly Cloudy
3:20 PM 77.0 °F 53.6 °F 44% 30.01 in 6.2 mi NE 16.1 mph - N/A   Mostly Cloudy
3:50 PM 77.0 °F 53.6 °F 44% 30.01 in 6.2 mi NNE 16.1 mph - N/A   Mostly Cloudy
4:20 PM 77.0 °F 51.8 °F 41% 30.01 in 6.2 mi NNE 17.3 mph - N/A   Mostly Cloudy
4:50 PM 77.0 °F 51.8 °F 41% 30.01 in 6.2 mi NNE 17.3 mph - N/A   Scattered Clouds
5:20 PM 75.2 °F 51.8 °F 44% 30.01 in 6.2 mi NE 16.1 mph - N/A   Scattered Clouds
5:50 PM 75.2 °F 51.8 °F 44% 30.01 in 6.2 mi NE 17.3 mph - N/A   Scattered Clouds
6:20 PM 73.4 °F 51.8 °F 47% 30.01 in 6.2 mi NE 18.4 mph - N/A   Partly Cloudy
6:50 PM 71.6 °F 51.8 °F 50% 30.01 in 6.2 mi ENE 17.3 mph - N/A   Partly Cloudy
7:20 PM 69.8 °F 53.6 °F 56% 30.01 in 6.2 mi NE 16.1 mph - N/A   Partly Cloudy
7:50 PM 68.0 °F 53.6 °F 60% 30.01 in 6.2 mi NE 12.7 mph - N/A   Scattered Clouds
8:20 PM 68.0 °F 53.6 °F 60% 30.04 in 6.2 mi NE 11.5 mph - N/A   Scattered Clouds
8:50 PM 66.2 °F 53.6 °F 64% 30.04 in 6.2 mi NE 10.4 mph - N/A   Partly Cloudy
9:20 PM 66.2 °F 55.4 °F 68% 30.04 in 6.2 mi NE 10.4 mph - N/A   Partly Cloudy
9:50 PM 66.2 °F 55.4 °F 68% 30.04 in - NE 11.5 mph - N/A   Clear
10:20 PM 66.2 °F 55.4 °F 68% 30.04 in - NE 11.5 mph - N/A   Clear
10:50 PM 64.4 °F 55.4 °F 73% 30.04 in - ENE 9.2 mph - N/A   Clear
11:20 PM 64.4 °F 55.4 °F 73% 30.06 in - NE 9.2 mph - N/A   Clear
11:50 PM 62.6 °F 53.6 °F 72% 30.06 in - NE 8.1 mph - N/A   Clear